Theta_e
347 348 347 346 345 345 345 344 344 341 341 340 340 341 340 341 341 340 339 338 337 338 338 340 340 340 336 335 338 337 330 330 331 333 335 333 334 339 340 338 333 336 335
347 347 346 347 346 345 345 345 344 343 343 343 340 340 340 340 341 341 339 339 340 342 342 342 342 340 337 339 339 334 331 330 333 334 336 331 336 342 342 341 332 323 323
347 347 347 346 346 345 345 345 345 344 343 343 341 340 339 338 339 341 340 341 340 338 342 342 342 341 339 340 338 332 333 331 332 342 339 331 333 339 339 339 333 320 329
347 347 345 345 345 345 344 343 343 343 342 342 342 340 339 338 338 340 341 341 339 337 339 339 339 340 340 340 338 334 337 341 343 344 343 334 332 339 332 331 333 322 327
348 346 345 344 342 340 341 339 340 340 340 340 341 339 338 336 336 338 338 338 337 336 336 338 337 338 339 341 337 333 339 342 341 345 343 341 332 333 326 323 333 333 333
348 346 345 341 337 337 337 337 337 337 336 336 337 337 335 335 337 340 337 336 336 336 336 340 338 340 341 341 336 333 341 342 344 343 342 342 339 334 329 324 331 338 334
347 346 341 337 337 337 335 334 333 333 332 332 332 333 333 336 343 344 341 340 340 339 337 338 339 339 340 340 334 334 340 343 342 344 342 341 343 341 333 326 336 338 332
344 343 338 337 338 337 335 334 333 332 332 331 331 331 337 340 337 336 335 338 340 341 340 339 339 340 339 341 334 334 337 343 343 344 343 342 343 339 333 325 331 331 324
348 343 338 338 339 338 337 336 335 334 334 333 333 334 337 333 334 333 333 337 338 340 341 341 341 340 339 343 336 332 339 343 345 345 342 343 343 332 328 331 326 328 324
352 344 339 339 338 338 338 338 337 337 336 335 335 335 334 339 335 333 332 334 335 337 339 341 342 342 339 341 338 331 337 342 345 345 346 346 343 343 331 330 327 333 327
353 346 339 339 339 340 340 340 339 338 338 337 336 335 335 336 347 345 339 341 339 336 337 339 341 343 341 338 340 335 335 335 346 344 344 344 344 343 337 326 329 329 331
353 353 349 343 341 342 343 341 341 340 340 339 338 336 340 347 348 348 347 346 343 340 335 337 340 341 341 338 338 339 334 338 345 344 342 344 341 338 334 333 327 329 332
353 353 351 350 347 346 346 349 345 342 342 343 344 344 343 348 350 348 348 347 344 340 338 336 341 343 341 340 337 337 338 335 345 346 345 338 342 339 337 335 333 330 328
349 349 349 349 351 349 348 350 349 345 346 346 347 346 347 343 350 349 346 348 346 346 343 345 347 345 344 344 343 339 339 338 343 346 345 340 335 342 340 336 336 335 332
349 350 348 349 350 350 345 349 348 346 347 346 346 346 346 343 342 346 348 346 348 348 346 347 347 345 343 346 345 344 343 340 340 342 344 344 345 346 343 340 338 336 335
353 352 351 351 352 350 348 351 350 350 349 350 348 342 347 346 345 342 340 342 344 344 344 340 341 344 337 334 344 344 343 344 341 343 345 344 344 346 344 340 340 340 336
350 349 353 353 353 350 350 352 348 350 349 348 339 349 347 347 345 347 343 345 342 341 338 338 339 343 341 336 344 344 345 344 344 342 342 341 343 344 343 343 342 341 338
351 349 353 351 351 349 348 348 346 345 348 347 347 348 347 347 346 346 346 342 341 341 342 342 337 342 342 337 343 343 347 345 344 345 343 343 341 345 345 344 344 341 340
351 351 351 348 346 341 341 344 345 346 348 350 349 349 350 349 349 347 347 345 346 344 344 343 335 335 340 337 342 342 346 345 345 345 345 343 343 345 346 345 344 344 343
351 351 351 346 336 341 334 338 339 342 346 349 350 346 349 349 348 346 348 346 342 344 344 346 340 341 342 343 343 344 340 338 341 346 344 343 344 344 346 345 346 346 345
352 353 352 349 345 344 337 335 337 338 342 346 346 348 347 350 344 343 342 341 342 343 342 342 341 341 343 344 344 338 341 341 343 341 341 344 343 344 345 343 343 344 345
355 353 352 350 347 339 338 336 338 340 341 346 350 351 347 345 343 341 342 342 342 341 341 342 341 340 342 343 339 335 342 341 341 340 344 344 343 343 342 343 343 344 342
353 355 355 350 345 341 340 335 338 341 343 345 349 346 344 342 343 343 341 342 342 341 340 340 341 340 341 341 341 342 341 341 340 342 345 346 344 342 344 344 343 342 342
352 356 355 351 346 344 343 338 341 345 348 347 346 346 343 343 345 346 344 341 340 341 340 339 339 339 340 340 341 341 340 341 341 341 342 344 344 345 344 343 339 340 343
354 355 355 352 349 346 345 345 345 347 348 348 345 343 344 342 344 344 342 340 341 340 340 339 338 338 339 339 340 340 339 340 342 341 340 342 343 341 343 343 344 344 343
353 353 353 352 352 347 346 346 349 348 347 347 339 343 344 342 343 340 338 339 342 342 340 339 339 338 339 339 340 339 338 339 339 340 339 341 341 341 339 341 342 342 342
Wind_Speed
22 20 20 20 20 19 17 17 16 16 16 16 16 16 16 14 14 15 13 13 11 10 9 9 9 8 9 9 9 10 8 8 10 11 11 12 15 18 18 16 11 16 16
27 23 21 21 20 19 17 15 15 15 14 14 15 15 15 12 13 13 12 13 12 10 8 8 8 8 8 8 9 11 12 11 12 12 12 11 14 15 14 13 11 12 14
27 24 23 21 20 18 16 14 13 13 13 13 13 13 13 12 11 12 12 10 10 8 9 8 8 8 8 8 10 13 13 13 15 16 14 10 11 12 13 11 8 13 16
27 24 22 20 18 17 15 14 13 12 11 11 11 11 11 11 12 11 10 9 8 8 7 7 6 7 7 8 11 14 13 16 16 16 15 12 7 9 10 8 10 14 15
27 24 22 19 17 16 14 13 13 12 11 10 8 9 9 10 11 10 8 8 8 7 6 6 5 6 7 9 13 14 14 15 16 14 9 8 7 6 7 9 10 12 12
24 22 21 18 16 15 14 13 12 12 11 10 8 8 8 9 9 8 8 6 6 6 6 6 5 6 6 10 14 16 14 16 14 13 11 9 4 5 4 9 11 11 10
19 21 19 17 16 14 13 12 12 11 11 11 9 8 8 8 9 7 6 5 5 6 6 5 5 5 7 11 15 17 16 14 11 10 11 8 2 1 2 7 10 9 7
19 18 17 17 15 14 13 13 11 10 10 9 9 9 9 7 7 6 5 5 5 4 4 5 5 5 7 11 14 17 17 18 15 13 10 4 2 3 1 5 8 8 7
16 17 16 16 15 14 13 12 12 10 9 8 8 8 8 6 5 4 4 5 4 4 5 4 4 4 4 9 12 15 16 14 13 11 8 6 2 2 1 5 7 8 9
15 11 16 16 15 14 14 13 12 11 9 8 7 5 5 6 6 4 3 2 2 2 3 5 6 4 4 7 11 11 13 11 11 10 7 6 3 1 0 5 7 8 8
12 12 15 16 15 14 13 11 10 9 8 7 7 6 6 6 3 4 3 1 0 1 1 3 4 4 5 5 10 12 13 12 11 8 6 8 4 2 2 5 7 7 8
12 9 8 7 11 13 12 11 9 8 7 6 6 6 7 7 4 3 4 3 3 3 3 4 4 3 6 7 8 9 11 14 13 10 11 10 8 5 5 8 7 8 8
14 11 8 5 6 9 10 9 9 9 9 9 8 8 7 9 5 8 7 6 5 3 3 4 3 5 6 9 8 6 11 16 14 12 13 12 11 7 7 9 9 8 9
20 15 11 11 10 8 12 10 9 9 8 9 9 8 9 10 9 11 8 10 10 5 6 7 6 6 9 8 6 9 10 16 18 14 12 12 14 10 9 10 12 11 11
19 16 16 17 14 12 14 10 11 9 9 9 9 10 10 11 12 13 17 11 10 7 9 8 13 12 9 10 10 9 11 13 17 16 15 15 11 11 11 11 11 13 13
17 12 13 17 15 12 7 11 12 11 10 14 11 12 11 10 11 16 17 19 17 13 13 15 16 15 8 13 12 10 14 12 15 17 16 16 16 15 12 13 13 15 14
17 14 14 16 11 8 8 10 14 12 13 10 14 12 13 13 15 14 15 17 17 21 24 23 19 20 19 16 17 11 14 14 13 16 19 21 18 15 15 16 14 16 16
18 16 16 16 14 11 11 8 11 13 13 12 16 13 12 17 19 16 17 16 13 12 15 19 18 18 21 16 16 13 16 17 18 15 13 17 23 18 17 17 15 15 15
13 19 18 11 5 13 11 11 7 12 14 8 13 13 13 14 15 16 18 18 16 15 16 13 21 17 17 19 18 15 17 16 19 17 18 15 17 23 21 19 16 16 14
16 22 20 9 17 10 9 20 10 14 14 8 13 11 14 18 19 18 20 20 19 21 18 14 17 20 18 16 17 17 16 21 20 20 16 15 21 21 21 19 20 19 17
16 17 16 13 11 14 10 15 15 4 10 7 15 13 14 19 17 22 22 21 19 21 22 21 19 20 20 18 20 17 18 18 18 19 16 17 19 21 22 24 22 21 20
11 11 14 9 5 11 14 8 5 13 12 8 12 13 13 14 16 20 20 19 16 17 21 21 20 21 22 22 20 16 18 15 18 20 18 20 19 16 20 22 22 20 16
15 11 9 5 10 14 18 15 14 11 2 4 8 10 11 13 12 14 13 15 16 15 16 17 18 19 21 19 17 19 10 9 9 16 21 19 15 13 13 13 15 16 14
9 12 9 3 11 8 10 12 6 2 3 2 3 5 10 11 13 15 16 17 13 13 14 12 12 18 19 21 24 25 24 9 5 6 12 20 17 18 15 14 12 13 14
14 12 9 8 10 12 10 9 5 2 5 6 4 4 8 8 10 15 19 15 10 11 11 10 10 12 16 19 21 24 25 24 13 7 5 8 10 13 14 11 12 14 15
15 10 11 11 12 13 11 10 11 12 7 4 2 3 1 8 14 16 13 10 8 7 8 7 10 8 11 16 17 20 21 17 17 18 13 8 6 2 8 13 9 8 14
Wind_Direction
150 144 141 141 135 133 129 123 116 115 115 116 121 127 129 127 125 126 128 130 128 124 122 112 104 101 105 106 100 108 103 114 120 120 122 123 117 111 99 90 95 107 109
150 146 144 142 140 133 130 125 121 118 120 115 119 125 125 121 123 124 129 127 122 116 112 112 106 101 108 101 108 107 107 110 109 108 115 111 118 111 114 115 85 109 112
151 147 145 141 137 135 131 127 126 120 121 119 121 126 122 122 120 122 129 124 117 106 108 114 115 111 110 105 115 109 113 115 124 108 92 102 113 110 113 113 101 110 111
154 147 142 138 138 138 137 134 132 124 121 121 123 126 122 121 121 129 131 131 124 113 112 111 113 116 117 117 119 116 118 119 121 116 99 98 104 115 111 110 112 113 115
150 147 140 139 139 138 137 137 135 132 128 130 132 130 129 124 129 142 144 137 137 125 130 123 117 118 126 129 123 127 127 110 88 116 114 91 101 110 119 127 126 122 112
146 148 144 143 142 140 139 141 142 137 136 139 141 137 134 131 136 139 141 152 136 140 144 137 124 118 117 136 128 138 135 118 114 125 136 118 123 76 111 128 132 127 118
141 153 148 147 145 145 143 142 143 145 145 146 149 147 141 139 139 151 141 132 137 151 153 154 145 136 126 139 138 146 136 134 118 98 132 140 169 317 93 138 138 142 128
142 156 156 153 150 150 150 147 146 149 150 151 152 151 145 147 143 150 139 136 144 145 158 166 172 162 145 152 148 151 148 141 136 130 152 172 253 357 188 164 153 152 146
169 157 168 163 158 157 155 152 152 156 158 160 160 154 153 154 147 148 146 141 152 161 172 189 191 195 161 160 153 156 162 147 152 151 151 186 273 38 175 180 164 153 153
158 153 176 177 170 166 166 165 164 166 169 169 167 167 164 145 145 160 175 145 127 164 177 198 212 203 180 156 166 163 173 158 152 157 168 180 193 66 210 200 171 170 159
145 147 179 184 179 176 176 176 177 178 180 177 173 172 177 168 117 144 166 137 39 314 215 219 219 201 195 185 177 179 181 170 171 180 205 191 202 236 231 215 184 179 175
155 157 168 194 195 189 185 194 195 201 199 198 198 183 166 157 232 240 250 255 321 294 214 215 226 209 196 201 194 188 191 176 192 198 221 219 222 198 216 212 200 186 191
186 196 227 234 241 219 207 198 215 221 217 206 199 186 190 198 229 228 248 272 282 261 255 205 211 255 215 216 193 195 190 199 209 215 221 249 214 198 206 223 214 198 202
200 212 226 230 229 224 229 223 243 236 232 237 233 223 229 242 222 212 238 242 244 218 243 228 244 223 195 201 215 223 207 205 214 226 222 220 215 209 206 222 225 217 206
192 195 209 218 220 215 219 221 238 234 242 239 247 245 243 249 247 232 233 237 217 224 235 235 241 238 233 220 221 216 224 212 204 224 239 236 232 226 223 227 233 230 216
186 192 207 209 212 216 215 212 223 226 231 237 240 275 257 249 256 254 250 241 240 237 234 248 253 232 252 254 241 230 234 227 211 222 230 239 237 229 230 226 244 243 235
192 201 199 199 197 217 235 238 249 246 238 253 268 250 270 272 283 280 278 261 251 248 250 261 245 232 245 257 236 228 244 238 240 230 232 235 235 244 242 232 239 242 243
196 195 187 187 196 207 223 231 230 230 232 241 258 265 266 276 275 279 276 276 275 262 258 254 236 237 244 247 239 237 237 241 242 236 234 231 236 239 240 243 241 242 244
202 189 200 218 235 222 252 229 243 230 224 238 244 256 267 275 268 271 273 272 283 273 257 259 229 248 249 230 230 239 241 244 241 242 238 230 229 232 237 242 251 254 241
204 208 211 218 299 232 354 249 288 254 221 223 245 263 264 268 275 278 277 277 276 265 261 243 237 240 240 234 235 258 236 254 250 237 253 252 230 232 240 234 242 248 243
205 218 245 280 197 249 337 262 237 185 252 245 245 262 266 276 287 292 289 284 278 267 265 259 249 246 244 239 245 243 241 244 240 240 246 251 246 233 238 244 241 250 257
190 227 251 270 284 124 60 136 234 224 213 257 247 248 283 284 301 312 304 300 291 276 266 261 258 251 244 245 247 233 256 247 237 230 238 245 245 236 235 238 250 257 267
221 238 252 272 127 145 115 119 168 203 232 279 246 264 289 316 329 326 323 312 296 289 274 263 258 251 245 245 218 197 219 228 243 238 240 244 245 247 230 226 238 258 259
208 229 251 263 136 149 143 141 164 77 39 209 256 305 312 329 318 300 319 318 294 295 289 272 244 245 240 238 237 240 236 216 220 235 238 234 247 250 229 227 239 268 256
200 212 212 163 142 151 161 149 144 338 215 188 260 281 337 335 308 304 314 316 316 303 300 273 245 239 243 243 237 229 237 233 233 242 231 216 226 234 242 233 246 253 243
196 203 167 163 155 151 160 170 183 188 191 216 276 18 294 306 297 307 320 329 334 337 337 283 251 234 245 245 242 233 234 219 223 240 241 238 194 157 242 236 257 258 232